<?xml version="1.0" encoding="UTF-8" standalone="no" ?>
<gpx xmlns="http://www.topografix.com/GPX/1/1" xmlns:xsi="http://www.w3.org/2001/XMLSchema-instance" xsi:schemaLocation="http://www.topografix.com/GPX/1/1 http://www.topografix.com/GPX/1/1/gpx.xsd" version="1.1" creator="VisuGPX - https://www.visugpx.com">
  <metadata>
    <name>Parcours VTT FFC Saillans</name>
  </metadata>
  <trk>
    <name><![CDATA[VTT N°4 rouge - Serre Peyplat - 20 km - Déniv 450 m]]></name>
    <extensions>
      <line xmlns="http://www.topografix.com/GPX/gpx_style/0/2">
        <color>ff0000</color>
        <width>4</width>
      </line>
    </extensions>
    <trkseg>
      <trkpt lat="44.69708" lon="5.19981">
        <ele>269</ele>
        <time>2022-11-17T10:03:31Z</time>
      </trkpt>
      <trkpt lat="44.69734" lon="5.2">
        <ele>270</ele>
        <time>2022-11-17T10:03:31Z</time>
      </trkpt>
      <trkpt lat="44.69737" lon="5.20009">
        <ele>271</ele>
        <time>2022-11-17T10:03:31Z</time>
      </trkpt>
      <trkpt lat="44.69746" lon="5.20012">
        <ele>272</ele>
        <time>2022-11-17T10:03:31Z</time>
      </trkpt>
      <trkpt lat="44.69781" lon="5.19965">
        <ele>274</ele>
        <time>2022-11-17T10:03:31Z</time>
      </trkpt>
      <trkpt lat="44.69839" lon="5.19904">
        <ele>277</ele>
        <time>2022-11-17T10:03:31Z</time>
      </trkpt>
      <trkpt lat="44.699" lon="5.19817">
        <ele>279</ele>
        <time>2022-11-17T10:03:31Z</time>
      </trkpt>
      <trkpt lat="44.6991" lon="5.19807">
        <ele>281</ele>
        <time>2022-11-17T10:03:31Z</time>
      </trkpt>
      <trkpt lat="44.69971" lon="5.19785">
        <ele>283</ele>
        <time>2022-11-17T10:03:31Z</time>
      </trkpt>
      <trkpt lat="44.70046" lon="5.19789">
        <ele>285</ele>
        <time>2022-11-17T10:03:31Z</time>
      </trkpt>
      <trkpt lat="44.70137" lon="5.19778">
        <ele>286</ele>
        <time>2022-11-17T10:03:31Z</time>
      </trkpt>
      <trkpt lat="44.70213" lon="5.19799">
        <ele>288</ele>
        <time>2022-11-17T10:03:31Z</time>
      </trkpt>
      <trkpt lat="44.70238" lon="5.1979">
        <ele>288</ele>
        <time>2022-11-17T10:03:31Z</time>
      </trkpt>
      <trkpt lat="44.70287" lon="5.19794">
        <ele>289</ele>
        <time>2022-11-17T10:03:31Z</time>
      </trkpt>
      <trkpt lat="44.7043" lon="5.19817">
        <ele>294</ele>
        <time>2022-11-17T10:03:31Z</time>
      </trkpt>
      <trkpt lat="44.7044" lon="5.19816">
        <ele>297</ele>
        <time>2022-11-17T10:03:31Z</time>
      </trkpt>
      <trkpt lat="44.70451" lon="5.1981">
        <ele>299</ele>
        <time>2022-11-17T10:03:31Z</time>
      </trkpt>
      <trkpt lat="44.70532" lon="5.1973">
        <ele>303</ele>
        <time>2022-11-17T10:03:31Z</time>
      </trkpt>
      <trkpt lat="44.70559" lon="5.19674">
        <ele>304</ele>
        <time>2022-11-17T10:03:31Z</time>
      </trkpt>
      <trkpt lat="44.70582" lon="5.19659">
        <ele>307</ele>
        <time>2022-11-17T10:03:31Z</time>
      </trkpt>
      <trkpt lat="44.70628" lon="5.1966">
        <ele>310</ele>
        <time>2022-11-17T10:03:31Z</time>
      </trkpt>
      <trkpt lat="44.70791" lon="5.19721">
        <ele>318</ele>
        <time>2022-11-17T10:03:31Z</time>
      </trkpt>
      <trkpt lat="44.70835" lon="5.19713">
        <ele>321</ele>
        <time>2022-11-17T10:03:31Z</time>
      </trkpt>
      <trkpt lat="44.70865" lon="5.19696">
        <ele>321</ele>
        <time>2022-11-17T10:03:31Z</time>
      </trkpt>
      <trkpt lat="44.70888" lon="5.19692">
        <ele>321</ele>
        <time>2022-11-17T10:03:31Z</time>
      </trkpt>
      <trkpt lat="44.70901" lon="5.19684">
        <ele>320</ele>
        <time>2022-11-17T10:03:31Z</time>
      </trkpt>
      <trkpt lat="44.70938" lon="5.19646">
        <ele>319</ele>
        <time>2022-11-17T10:03:31Z</time>
      </trkpt>
      <trkpt lat="44.7095" lon="5.19643">
        <ele>318</ele>
        <time>2022-11-17T10:03:31Z</time>
      </trkpt>
      <trkpt lat="44.70959" lon="5.19637">
        <ele>317</ele>
        <time>2022-11-17T10:03:31Z</time>
      </trkpt>
      <trkpt lat="44.70963" lon="5.19619">
        <ele>316</ele>
        <time>2022-11-17T10:03:31Z</time>
      </trkpt>
      <trkpt lat="44.70963" lon="5.19609">
        <ele>316</ele>
        <time>2022-11-17T10:03:31Z</time>
      </trkpt>
      <trkpt lat="44.70944" lon="5.19588">
        <ele>315</ele>
        <time>2022-11-17T10:03:31Z</time>
      </trkpt>
      <trkpt lat="44.70941" lon="5.19574">
        <ele>314</ele>
        <time>2022-11-17T10:03:31Z</time>
      </trkpt>
      <trkpt lat="44.70953" lon="5.19536">
        <ele>314</ele>
        <time>2022-11-17T10:03:31Z</time>
      </trkpt>
      <trkpt lat="44.71" lon="5.19469">
        <ele>317</ele>
        <time>2022-11-17T10:03:31Z</time>
      </trkpt>
      <trkpt lat="44.71015" lon="5.19454">
        <ele>320</ele>
        <time>2022-11-17T10:03:31Z</time>
      </trkpt>
      <trkpt lat="44.7102" lon="5.19446">
        <ele>322</ele>
        <time>2022-11-17T10:03:31Z</time>
      </trkpt>
      <trkpt lat="44.71025" lon="5.19428">
        <ele>324</ele>
        <time>2022-11-17T10:03:31Z</time>
      </trkpt>
      <trkpt lat="44.71024" lon="5.19417">
        <ele>325</ele>
        <time>2022-11-17T10:03:31Z</time>
      </trkpt>
      <trkpt lat="44.71028" lon="5.19398">
        <ele>326</ele>
        <time>2022-11-17T10:03:31Z</time>
      </trkpt>
      <trkpt lat="44.71068" lon="5.19304">
        <ele>328</ele>
        <time>2022-11-17T10:03:31Z</time>
      </trkpt>
      <trkpt lat="44.71085" lon="5.19283">
        <ele>329</ele>
        <time>2022-11-17T10:03:31Z</time>
      </trkpt>
      <trkpt lat="44.71128" lon="5.19261">
        <ele>332</ele>
        <time>2022-11-17T10:03:31Z</time>
      </trkpt>
      <trkpt lat="44.71378" lon="5.19175">
        <ele>336</ele>
        <time>2022-11-17T10:03:31Z</time>
      </trkpt>
      <trkpt lat="44.71477" lon="5.19111">
        <ele>338</ele>
        <time>2022-11-17T10:03:31Z</time>
      </trkpt>
      <trkpt lat="44.71493" lon="5.1911">
        <ele>340</ele>
        <time>2022-11-17T10:03:31Z</time>
      </trkpt>
      <trkpt lat="44.71511" lon="5.19116">
        <ele>341</ele>
        <time>2022-11-17T10:03:31Z</time>
      </trkpt>
      <trkpt lat="44.71536" lon="5.19131">
        <ele>343</ele>
        <time>2022-11-17T10:03:31Z</time>
      </trkpt>
      <trkpt lat="44.71632" lon="5.19151">
        <ele>349</ele>
        <time>2022-11-17T10:03:31Z</time>
      </trkpt>
      <trkpt lat="44.71648" lon="5.1916">
        <ele>352</ele>
        <time>2022-11-17T10:03:31Z</time>
      </trkpt>
      <trkpt lat="44.7168" lon="5.19194">
        <ele>369</ele>
        <time>2022-11-17T10:03:31Z</time>
      </trkpt>
      <trkpt lat="44.71691" lon="5.19196">
        <ele>369</ele>
        <time>2022-11-17T10:03:31Z</time>
      </trkpt>
      <trkpt lat="44.71697" lon="5.1919">
        <ele>369</ele>
        <time>2022-11-17T10:03:31Z</time>
      </trkpt>
      <trkpt lat="44.71704" lon="5.19202">
        <ele>370</ele>
        <time>2022-11-17T10:03:31Z</time>
      </trkpt>
      <trkpt lat="44.717" lon="5.19213">
        <ele>371</ele>
        <time>2022-11-17T10:03:31Z</time>
      </trkpt>
      <trkpt lat="44.71686" lon="5.19215">
        <ele>371</ele>
        <time>2022-11-17T10:03:31Z</time>
      </trkpt>
      <trkpt lat="44.71622" lon="5.19198">
        <ele>370</ele>
        <time>2022-11-17T10:03:31Z</time>
      </trkpt>
      <trkpt lat="44.71576" lon="5.19226">
        <ele>370</ele>
        <time>2022-11-17T10:03:31Z</time>
      </trkpt>
      <trkpt lat="44.71567" lon="5.19244">
        <ele>371</ele>
        <time>2022-11-17T10:03:31Z</time>
      </trkpt>
      <trkpt lat="44.71558" lon="5.19254">
        <ele>373</ele>
        <time>2022-11-17T10:03:31Z</time>
      </trkpt>
      <trkpt lat="44.71551" lon="5.19256">
        <ele>374</ele>
        <time>2022-11-17T10:03:31Z</time>
      </trkpt>
      <trkpt lat="44.71492" lon="5.19247">
        <ele>374</ele>
        <time>2022-11-17T10:03:31Z</time>
      </trkpt>
      <trkpt lat="44.71476" lon="5.19256">
        <ele>375</ele>
        <time>2022-11-17T10:03:31Z</time>
      </trkpt>
      <trkpt lat="44.71429" lon="5.19306">
        <ele>380</ele>
        <time>2022-11-17T10:03:31Z</time>
      </trkpt>
      <trkpt lat="44.7142" lon="5.19312">
        <ele>383</ele>
        <time>2022-11-17T10:03:31Z</time>
      </trkpt>
      <trkpt lat="44.71391" lon="5.19312">
        <ele>386</ele>
        <time>2022-11-17T10:03:31Z</time>
      </trkpt>
      <trkpt lat="44.71185" lon="5.19413">
        <ele>395</ele>
        <time>2022-11-17T10:03:31Z</time>
      </trkpt>
      <trkpt lat="44.71178" lon="5.19421">
        <ele>399</ele>
        <time>2022-11-17T10:03:31Z</time>
      </trkpt>
      <trkpt lat="44.71173" lon="5.19438">
        <ele>401</ele>
        <time>2022-11-17T10:03:31Z</time>
      </trkpt>
      <trkpt lat="44.71174" lon="5.19449">
        <ele>402</ele>
        <time>2022-11-17T10:03:31Z</time>
      </trkpt>
      <trkpt lat="44.71215" lon="5.19571">
        <ele>405</ele>
        <time>2022-11-17T10:03:31Z</time>
      </trkpt>
      <trkpt lat="44.71221" lon="5.19581">
        <ele>407</ele>
        <time>2022-11-17T10:03:31Z</time>
      </trkpt>
      <trkpt lat="44.71234" lon="5.19587">
        <ele>408</ele>
        <time>2022-11-17T10:03:31Z</time>
      </trkpt>
      <trkpt lat="44.71288" lon="5.19586">
        <ele>411</ele>
        <time>2022-11-17T10:03:31Z</time>
      </trkpt>
      <trkpt lat="44.71308" lon="5.19593">
        <ele>414</ele>
        <time>2022-11-17T10:03:31Z</time>
      </trkpt>
      <trkpt lat="44.71333" lon="5.19613">
        <ele>417</ele>
        <time>2022-11-17T10:03:31Z</time>
      </trkpt>
      <trkpt lat="44.71352" lon="5.19662">
        <ele>418</ele>
        <time>2022-11-17T10:03:31Z</time>
      </trkpt>
      <trkpt lat="44.71376" lon="5.1969">
        <ele>418</ele>
        <time>2022-11-17T10:03:31Z</time>
      </trkpt>
      <trkpt lat="44.71401" lon="5.19701">
        <ele>419</ele>
        <time>2022-11-17T10:03:31Z</time>
      </trkpt>
      <trkpt lat="44.71458" lon="5.19711">
        <ele>420</ele>
        <time>2022-11-17T10:03:31Z</time>
      </trkpt>
      <trkpt lat="44.71466" lon="5.19707">
        <ele>420</ele>
        <time>2022-11-17T10:03:31Z</time>
      </trkpt>
      <trkpt lat="44.71529" lon="5.1966">
        <ele>421</ele>
        <time>2022-11-17T10:03:31Z</time>
      </trkpt>
      <trkpt lat="44.71582" lon="5.19644">
        <ele>423</ele>
        <time>2022-11-17T10:03:31Z</time>
      </trkpt>
      <trkpt lat="44.71627" lon="5.19649">
        <ele>424</ele>
        <time>2022-11-17T10:03:31Z</time>
      </trkpt>
      <trkpt lat="44.7174" lon="5.1959">
        <ele>423</ele>
        <time>2022-11-17T10:03:31Z</time>
      </trkpt>
      <trkpt lat="44.7191" lon="5.19538">
        <ele>415</ele>
        <time>2022-11-17T10:03:31Z</time>
      </trkpt>
      <trkpt lat="44.71943" lon="5.19565">
        <ele>410</ele>
        <time>2022-11-17T10:03:31Z</time>
      </trkpt>
      <trkpt lat="44.71956" lon="5.19568">
        <ele>406</ele>
        <time>2022-11-17T10:03:31Z</time>
      </trkpt>
      <trkpt lat="44.71966" lon="5.19567">
        <ele>404</ele>
        <time>2022-11-17T10:03:31Z</time>
      </trkpt>
      <trkpt lat="44.72012" lon="5.19527">
        <ele>401</ele>
        <time>2022-11-17T10:03:31Z</time>
      </trkpt>
      <trkpt lat="44.72142" lon="5.19511">
        <ele>395</ele>
        <time>2022-11-17T10:03:31Z</time>
      </trkpt>
      <trkpt lat="44.72149" lon="5.19526">
        <ele>392</ele>
        <time>2022-11-17T10:03:31Z</time>
      </trkpt>
      <trkpt lat="44.72157" lon="5.19528">
        <ele>390</ele>
        <time>2022-11-17T10:03:31Z</time>
      </trkpt>
      <trkpt lat="44.72332" lon="5.19445">
        <ele>393</ele>
        <time>2022-11-17T10:03:31Z</time>
      </trkpt>
      <trkpt lat="44.72388" lon="5.19401">
        <ele>395</ele>
        <time>2022-11-17T10:03:31Z</time>
      </trkpt>
      <trkpt lat="44.72384" lon="5.19296">
        <ele>392</ele>
        <time>2022-11-17T10:03:31Z</time>
      </trkpt>
      <trkpt lat="44.72387" lon="5.19283">
        <ele>392</ele>
        <time>2022-11-17T10:03:31Z</time>
      </trkpt>
      <trkpt lat="44.72387" lon="5.19271">
        <ele>392</ele>
        <time>2022-11-17T10:03:31Z</time>
      </trkpt>
      <trkpt lat="44.72383" lon="5.19257">
        <ele>395</ele>
        <time>2022-11-17T10:03:31Z</time>
      </trkpt>
      <trkpt lat="44.72384" lon="5.19239">
        <ele>395</ele>
        <time>2022-11-17T10:03:31Z</time>
      </trkpt>
      <trkpt lat="44.72389" lon="5.19228">
        <ele>395</ele>
        <time>2022-11-17T10:03:31Z</time>
      </trkpt>
      <trkpt lat="44.72388" lon="5.19205">
        <ele>395</ele>
        <time>2022-11-17T10:03:31Z</time>
      </trkpt>
      <trkpt lat="44.7239" lon="5.19193">
        <ele>396</ele>
        <time>2022-11-17T10:03:31Z</time>
      </trkpt>
      <trkpt lat="44.72389" lon="5.19164">
        <ele>397</ele>
        <time>2022-11-17T10:03:31Z</time>
      </trkpt>
      <trkpt lat="44.72394" lon="5.19142">
        <ele>399</ele>
        <time>2022-11-17T10:03:31Z</time>
      </trkpt>
      <trkpt lat="44.72402" lon="5.19135">
        <ele>401</ele>
        <time>2022-11-17T10:03:31Z</time>
      </trkpt>
      <trkpt lat="44.7241" lon="5.1912">
        <ele>403</ele>
        <time>2022-11-17T10:03:31Z</time>
      </trkpt>
      <trkpt lat="44.72416" lon="5.19084">
        <ele>406</ele>
        <time>2022-11-17T10:03:31Z</time>
      </trkpt>
      <trkpt lat="44.72392" lon="5.19017">
        <ele>408</ele>
        <time>2022-11-17T10:03:31Z</time>
      </trkpt>
      <trkpt lat="44.7238" lon="5.18994">
        <ele>410</ele>
        <time>2022-11-17T10:03:31Z</time>
      </trkpt>
      <trkpt lat="44.72376" lon="5.18984">
        <ele>411</ele>
        <time>2022-11-17T10:03:31Z</time>
      </trkpt>
      <trkpt lat="44.72376" lon="5.18972">
        <ele>412</ele>
        <time>2022-11-17T10:03:31Z</time>
      </trkpt>
      <trkpt lat="44.72384" lon="5.18937">
        <ele>414</ele>
        <time>2022-11-17T10:03:31Z</time>
      </trkpt>
      <trkpt lat="44.7238" lon="5.18918">
        <ele>415</ele>
        <time>2022-11-17T10:03:31Z</time>
      </trkpt>
      <trkpt lat="44.72367" lon="5.18915">
        <ele>416</ele>
        <time>2022-11-17T10:03:31Z</time>
      </trkpt>
      <trkpt lat="44.72338" lon="5.18942">
        <ele>418</ele>
        <time>2022-11-17T10:03:31Z</time>
      </trkpt>
      <trkpt lat="44.72302" lon="5.19086">
        <ele>422</ele>
        <time>2022-11-17T10:03:31Z</time>
      </trkpt>
      <trkpt lat="44.72295" lon="5.19087">
        <ele>425</ele>
        <time>2022-11-17T10:03:31Z</time>
      </trkpt>
      <trkpt lat="44.72293" lon="5.19075">
        <ele>427</ele>
        <time>2022-11-17T10:03:31Z</time>
      </trkpt>
      <trkpt lat="44.72302" lon="5.19032">
        <ele>430</ele>
        <time>2022-11-17T10:03:31Z</time>
      </trkpt>
      <trkpt lat="44.72312" lon="5.1891">
        <ele>434</ele>
        <time>2022-11-17T10:03:31Z</time>
      </trkpt>
      <trkpt lat="44.72318" lon="5.18896">
        <ele>434</ele>
        <time>2022-11-17T10:03:31Z</time>
      </trkpt>
      <trkpt lat="44.72425" lon="5.18752">
        <ele>436</ele>
        <time>2022-11-17T10:03:31Z</time>
      </trkpt>
      <trkpt lat="44.7243" lon="5.18738">
        <ele>437</ele>
        <time>2022-11-17T10:03:31Z</time>
      </trkpt>
      <trkpt lat="44.7243" lon="5.18714">
        <ele>437</ele>
        <time>2022-11-17T10:03:31Z</time>
      </trkpt>
      <trkpt lat="44.725" lon="5.18579">
        <ele>443</ele>
        <time>2022-11-17T10:03:31Z</time>
      </trkpt>
      <trkpt lat="44.72508" lon="5.18573">
        <ele>447</ele>
        <time>2022-11-17T10:03:31Z</time>
      </trkpt>
      <trkpt lat="44.72527" lon="5.18572">
        <ele>450</ele>
        <time>2022-11-17T10:03:31Z</time>
      </trkpt>
      <trkpt lat="44.72548" lon="5.1858">
        <ele>453</ele>
        <time>2022-11-17T10:03:31Z</time>
      </trkpt>
      <trkpt lat="44.72572" lon="5.18565">
        <ele>456</ele>
        <time>2022-11-17T10:03:31Z</time>
      </trkpt>
      <trkpt lat="44.72594" lon="5.18565">
        <ele>459</ele>
        <time>2022-11-17T10:03:31Z</time>
      </trkpt>
      <trkpt lat="44.72608" lon="5.18557">
        <ele>461</ele>
        <time>2022-11-17T10:03:31Z</time>
      </trkpt>
      <trkpt lat="44.72612" lon="5.18534">
        <ele>463</ele>
        <time>2022-11-17T10:03:31Z</time>
      </trkpt>
      <trkpt lat="44.72612" lon="5.18518">
        <ele>464</ele>
        <time>2022-11-17T10:03:31Z</time>
      </trkpt>
      <trkpt lat="44.72624" lon="5.18468">
        <ele>466</ele>
        <time>2022-11-17T10:03:31Z</time>
      </trkpt>
      <trkpt lat="44.72657" lon="5.18398">
        <ele>470</ele>
        <time>2022-11-17T10:03:31Z</time>
      </trkpt>
      <trkpt lat="44.7268" lon="5.18374">
        <ele>474</ele>
        <time>2022-11-17T10:03:31Z</time>
      </trkpt>
      <trkpt lat="44.72708" lon="5.18357">
        <ele>477</ele>
        <time>2022-11-17T10:03:31Z</time>
      </trkpt>
      <trkpt lat="44.72724" lon="5.18351">
        <ele>479</ele>
        <time>2022-11-17T10:03:31Z</time>
      </trkpt>
      <trkpt lat="44.72733" lon="5.18344">
        <ele>480</ele>
        <time>2022-11-17T10:03:31Z</time>
      </trkpt>
      <trkpt lat="44.72756" lon="5.18303">
        <ele>483</ele>
        <time>2022-11-17T10:03:31Z</time>
      </trkpt>
      <trkpt lat="44.72817" lon="5.18233">
        <ele>489</ele>
        <time>2022-11-17T10:03:31Z</time>
      </trkpt>
      <trkpt lat="44.72832" lon="5.18208">
        <ele>494</ele>
        <time>2022-11-17T10:03:31Z</time>
      </trkpt>
      <trkpt lat="44.72839" lon="5.18204">
        <ele>497</ele>
        <time>2022-11-17T10:03:31Z</time>
      </trkpt>
      <trkpt lat="44.72848" lon="5.18204">
        <ele>500</ele>
        <time>2022-11-17T10:03:31Z</time>
      </trkpt>
      <trkpt lat="44.72857" lon="5.18212">
        <ele>502</ele>
        <time>2022-11-17T10:03:31Z</time>
      </trkpt>
      <trkpt lat="44.72865" lon="5.18224">
        <ele>512</ele>
        <time>2022-11-17T10:03:31Z</time>
      </trkpt>
      <trkpt lat="44.72877" lon="5.18257">
        <ele>512</ele>
        <time>2022-11-17T10:03:31Z</time>
      </trkpt>
      <trkpt lat="44.72885" lon="5.18263">
        <ele>512</ele>
        <time>2022-11-17T10:03:31Z</time>
      </trkpt>
      <trkpt lat="44.72892" lon="5.18263">
        <ele>512</ele>
        <time>2022-11-17T10:03:31Z</time>
      </trkpt>
      <trkpt lat="44.72974" lon="5.18149">
        <ele>508</ele>
        <time>2022-11-17T10:03:31Z</time>
      </trkpt>
      <trkpt lat="44.72987" lon="5.18144">
        <ele>507</ele>
        <time>2022-11-17T10:03:31Z</time>
      </trkpt>
      <trkpt lat="44.72996" lon="5.18146">
        <ele>506</ele>
        <time>2022-11-17T10:03:31Z</time>
      </trkpt>
      <trkpt lat="44.73003" lon="5.18153">
        <ele>505</ele>
        <time>2022-11-17T10:03:31Z</time>
      </trkpt>
      <trkpt lat="44.73008" lon="5.18162">
        <ele>505</ele>
        <time>2022-11-17T10:03:31Z</time>
      </trkpt>
      <trkpt lat="44.73028" lon="5.18235">
        <ele>506</ele>
        <time>2022-11-17T10:03:31Z</time>
      </trkpt>
      <trkpt lat="44.73029" lon="5.18352">
        <ele>510</ele>
        <time>2022-11-17T10:03:31Z</time>
      </trkpt>
      <trkpt lat="44.73026" lon="5.1843">
        <ele>511</ele>
        <time>2022-11-17T10:03:31Z</time>
      </trkpt>
      <trkpt lat="44.73029" lon="5.18442">
        <ele>511</ele>
        <time>2022-11-17T10:03:31Z</time>
      </trkpt>
      <trkpt lat="44.73034" lon="5.18451">
        <ele>511</ele>
        <time>2022-11-17T10:03:31Z</time>
      </trkpt>
      <trkpt lat="44.73042" lon="5.18457">
        <ele>511</ele>
        <time>2022-11-17T10:03:31Z</time>
      </trkpt>
      <trkpt lat="44.7306" lon="5.18459">
        <ele>512</ele>
        <time>2022-11-17T10:03:31Z</time>
      </trkpt>
      <trkpt lat="44.73069" lon="5.18463">
        <ele>512</ele>
        <time>2022-11-17T10:03:31Z</time>
      </trkpt>
      <trkpt lat="44.73083" lon="5.18479">
        <ele>513</ele>
        <time>2022-11-17T10:03:31Z</time>
      </trkpt>
      <trkpt lat="44.73104" lon="5.18518">
        <ele>513</ele>
        <time>2022-11-17T10:03:31Z</time>
      </trkpt>
      <trkpt lat="44.73111" lon="5.18524">
        <ele>513</ele>
        <time>2022-11-17T10:03:31Z</time>
      </trkpt>
      <trkpt lat="44.7312" lon="5.18523">
        <ele>513</ele>
        <time>2022-11-17T10:03:31Z</time>
      </trkpt>
      <trkpt lat="44.73127" lon="5.18516">
        <ele>513</ele>
        <time>2022-11-17T10:03:31Z</time>
      </trkpt>
      <trkpt lat="44.73131" lon="5.18481">
        <ele>513</ele>
        <time>2022-11-17T10:03:31Z</time>
      </trkpt>
      <trkpt lat="44.73127" lon="5.18431">
        <ele>514</ele>
        <time>2022-11-17T10:03:31Z</time>
      </trkpt>
      <trkpt lat="44.7313" lon="5.18418">
        <ele>516</ele>
        <time>2022-11-17T10:03:31Z</time>
      </trkpt>
      <trkpt lat="44.73166" lon="5.18352">
        <ele>518</ele>
        <time>2022-11-17T10:03:31Z</time>
      </trkpt>
      <trkpt lat="44.73184" lon="5.1834">
        <ele>520</ele>
        <time>2022-11-17T10:03:31Z</time>
      </trkpt>
      <trkpt lat="44.73219" lon="5.18343">
        <ele>521</ele>
        <time>2022-11-17T10:03:31Z</time>
      </trkpt>
      <trkpt lat="44.73228" lon="5.1834">
        <ele>521</ele>
        <time>2022-11-17T10:03:31Z</time>
      </trkpt>
      <trkpt lat="44.73234" lon="5.18331">
        <ele>521</ele>
        <time>2022-11-17T10:03:31Z</time>
      </trkpt>
      <trkpt lat="44.73261" lon="5.18136">
        <ele>523</ele>
        <time>2022-11-17T10:03:31Z</time>
      </trkpt>
      <trkpt lat="44.7326" lon="5.18109">
        <ele>523</ele>
        <time>2022-11-17T10:03:31Z</time>
      </trkpt>
      <trkpt lat="44.73256" lon="5.18096">
        <ele>524</ele>
        <time>2022-11-17T10:03:31Z</time>
      </trkpt>
      <trkpt lat="44.73254" lon="5.18085">
        <ele>525</ele>
        <time>2022-11-17T10:03:31Z</time>
      </trkpt>
      <trkpt lat="44.73256" lon="5.18071">
        <ele>526</ele>
        <time>2022-11-17T10:03:31Z</time>
      </trkpt>
      <trkpt lat="44.73266" lon="5.1806">
        <ele>526</ele>
        <time>2022-11-17T10:03:31Z</time>
      </trkpt>
      <trkpt lat="44.73277" lon="5.18056">
        <ele>526</ele>
        <time>2022-11-17T10:03:31Z</time>
      </trkpt>
      <trkpt lat="44.73285" lon="5.18051">
        <ele>526</ele>
        <time>2022-11-17T10:03:31Z</time>
      </trkpt>
      <trkpt lat="44.73291" lon="5.1804">
        <ele>526</ele>
        <time>2022-11-17T10:03:31Z</time>
      </trkpt>
      <trkpt lat="44.73303" lon="5.17988">
        <ele>527</ele>
        <time>2022-11-17T10:03:31Z</time>
      </trkpt>
      <trkpt lat="44.73309" lon="5.17979">
        <ele>528</ele>
        <time>2022-11-17T10:03:31Z</time>
      </trkpt>
      <trkpt lat="44.73338" lon="5.17951">
        <ele>530</ele>
        <time>2022-11-17T10:03:31Z</time>
      </trkpt>
      <trkpt lat="44.73347" lon="5.1795">
        <ele>531</ele>
        <time>2022-11-17T10:03:31Z</time>
      </trkpt>
      <trkpt lat="44.73356" lon="5.17965">
        <ele>533</ele>
        <time>2022-11-17T10:03:31Z</time>
      </trkpt>
      <trkpt lat="44.73374" lon="5.18046">
        <ele>540</ele>
        <time>2022-11-17T10:03:31Z</time>
      </trkpt>
      <trkpt lat="44.73383" lon="5.18056">
        <ele>540</ele>
        <time>2022-11-17T10:03:31Z</time>
      </trkpt>
      <trkpt lat="44.73391" lon="5.18051">
        <ele>540</ele>
        <time>2022-11-17T10:03:31Z</time>
      </trkpt>
      <trkpt lat="44.73411" lon="5.18028">
        <ele>540</ele>
        <time>2022-11-17T10:03:31Z</time>
      </trkpt>
      <trkpt lat="44.73427" lon="5.18021">
        <ele>540</ele>
        <time>2022-11-17T10:03:31Z</time>
      </trkpt>
      <trkpt lat="44.7344" lon="5.1802">
        <ele>540</ele>
        <time>2022-11-17T10:03:31Z</time>
      </trkpt>
      <trkpt lat="44.73452" lon="5.18024">
        <ele>541</ele>
        <time>2022-11-17T10:03:31Z</time>
      </trkpt>
      <trkpt lat="44.73457" lon="5.18032">
        <ele>541</ele>
        <time>2022-11-17T10:03:31Z</time>
      </trkpt>
      <trkpt lat="44.73467" lon="5.18066">
        <ele>540</ele>
        <time>2022-11-17T10:03:31Z</time>
      </trkpt>
      <trkpt lat="44.7348" lon="5.18075">
        <ele>540</ele>
        <time>2022-11-17T10:03:31Z</time>
      </trkpt>
      <trkpt lat="44.73488" lon="5.18073">
        <ele>540</ele>
        <time>2022-11-17T10:03:31Z</time>
      </trkpt>
      <trkpt lat="44.73505" lon="5.18056">
        <ele>541</ele>
        <time>2022-11-17T10:03:31Z</time>
      </trkpt>
      <trkpt lat="44.73605" lon="5.1802">
        <ele>543</ele>
        <time>2022-11-17T10:03:31Z</time>
      </trkpt>
      <trkpt lat="44.7363" lon="5.18024">
        <ele>544</ele>
        <time>2022-11-17T10:03:31Z</time>
      </trkpt>
      <trkpt lat="44.73723" lon="5.1809">
        <ele>547</ele>
        <time>2022-11-17T10:03:31Z</time>
      </trkpt>
      <trkpt lat="44.73666" lon="5.1799">
        <ele>551</ele>
        <time>2022-11-17T10:03:31Z</time>
      </trkpt>
      <trkpt lat="44.73663" lon="5.1798">
        <ele>553</ele>
        <time>2022-11-17T10:03:31Z</time>
      </trkpt>
      <trkpt lat="44.73654" lon="5.17971">
        <ele>555</ele>
        <time>2022-11-17T10:03:31Z</time>
      </trkpt>
      <trkpt lat="44.73552" lon="5.17934">
        <ele>561</ele>
        <time>2022-11-17T10:03:31Z</time>
      </trkpt>
      <trkpt lat="44.73541" lon="5.17925">
        <ele>564</ele>
        <time>2022-11-17T10:03:31Z</time>
      </trkpt>
      <trkpt lat="44.73533" lon="5.17903">
        <ele>567</ele>
        <time>2022-11-17T10:03:31Z</time>
      </trkpt>
      <trkpt lat="44.73521" lon="5.17886">
        <ele>569</ele>
        <time>2022-11-17T10:03:31Z</time>
      </trkpt>
      <trkpt lat="44.73495" lon="5.17866">
        <ele>570</ele>
        <time>2022-11-17T10:03:31Z</time>
      </trkpt>
      <trkpt lat="44.73475" lon="5.17858">
        <ele>572</ele>
        <time>2022-11-17T10:03:31Z</time>
      </trkpt>
      <trkpt lat="44.73464" lon="5.17857">
        <ele>573</ele>
        <time>2022-11-17T10:03:31Z</time>
      </trkpt>
      <trkpt lat="44.734" lon="5.17796">
        <ele>577</ele>
        <time>2022-11-17T10:03:31Z</time>
      </trkpt>
      <trkpt lat="44.7336" lon="5.17793">
        <ele>579</ele>
        <time>2022-11-17T10:03:31Z</time>
      </trkpt>
      <trkpt lat="44.73303" lon="5.17807">
        <ele>583</ele>
        <time>2022-11-17T10:03:31Z</time>
      </trkpt>
      <trkpt lat="44.73263" lon="5.17835">
        <ele>585</ele>
        <time>2022-11-17T10:03:31Z</time>
      </trkpt>
      <trkpt lat="44.73245" lon="5.17837">
        <ele>587</ele>
        <time>2022-11-17T10:03:31Z</time>
      </trkpt>
      <trkpt lat="44.73237" lon="5.17831">
        <ele>588</ele>
        <time>2022-11-17T10:03:31Z</time>
      </trkpt>
      <trkpt lat="44.73172" lon="5.17722">
        <ele>591</ele>
        <time>2022-11-17T10:03:31Z</time>
      </trkpt>
      <trkpt lat="44.73141" lon="5.17695">
        <ele>592</ele>
        <time>2022-11-17T10:03:31Z</time>
      </trkpt>
      <trkpt lat="44.73097" lon="5.1769">
        <ele>593</ele>
        <time>2022-11-17T10:03:31Z</time>
      </trkpt>
      <trkpt lat="44.73006" lon="5.17753">
        <ele>591</ele>
        <time>2022-11-17T10:03:31Z</time>
      </trkpt>
      <trkpt lat="44.73004" lon="5.1767">
        <ele>592</ele>
        <time>2022-11-17T10:03:31Z</time>
      </trkpt>
      <trkpt lat="44.72992" lon="5.17636">
        <ele>591</ele>
        <time>2022-11-17T10:03:31Z</time>
      </trkpt>
      <trkpt lat="44.72941" lon="5.17537">
        <ele>588</ele>
        <time>2022-11-17T10:03:31Z</time>
      </trkpt>
      <trkpt lat="44.72894" lon="5.17505">
        <ele>583</ele>
        <time>2022-11-17T10:03:31Z</time>
      </trkpt>
      <trkpt lat="44.72808" lon="5.1746">
        <ele>578</ele>
        <time>2022-11-17T10:03:31Z</time>
      </trkpt>
      <trkpt lat="44.72795" lon="5.17444">
        <ele>576</ele>
        <time>2022-11-17T10:03:31Z</time>
      </trkpt>
      <trkpt lat="44.72745" lon="5.17316">
        <ele>579</ele>
        <time>2022-11-17T10:03:31Z</time>
      </trkpt>
      <trkpt lat="44.72742" lon="5.17299">
        <ele>581</ele>
        <time>2022-11-17T10:03:31Z</time>
      </trkpt>
      <trkpt lat="44.72744" lon="5.17288">
        <ele>583</ele>
        <time>2022-11-17T10:03:31Z</time>
      </trkpt>
      <trkpt lat="44.72753" lon="5.17261">
        <ele>592</ele>
        <time>2022-11-17T10:03:31Z</time>
      </trkpt>
      <trkpt lat="44.72774" lon="5.17103">
        <ele>593</ele>
        <time>2022-11-17T10:03:31Z</time>
      </trkpt>
      <trkpt lat="44.72763" lon="5.17046">
        <ele>596</ele>
        <time>2022-11-17T10:03:31Z</time>
      </trkpt>
      <trkpt lat="44.72763" lon="5.17027">
        <ele>598</ele>
        <time>2022-11-17T10:03:31Z</time>
      </trkpt>
      <trkpt lat="44.72766" lon="5.17014">
        <ele>600</ele>
        <time>2022-11-17T10:03:31Z</time>
      </trkpt>
      <trkpt lat="44.72776" lon="5.16992">
        <ele>602</ele>
        <time>2022-11-17T10:03:31Z</time>
      </trkpt>
      <trkpt lat="44.72824" lon="5.16928">
        <ele>603</ele>
        <time>2022-11-17T10:03:31Z</time>
      </trkpt>
      <trkpt lat="44.72877" lon="5.16814">
        <ele>607</ele>
        <time>2022-12-03T08:48:58Z</time>
      </trkpt>
      <trkpt lat="44.7293" lon="5.167">
        <ele>613</ele>
        <time>2022-11-17T10:03:31Z</time>
      </trkpt>
      <trkpt lat="44.72933" lon="5.16684">
        <ele>616</ele>
        <time>2022-11-17T10:03:31Z</time>
      </trkpt>
      <trkpt lat="44.72933" lon="5.16673">
        <ele>619</ele>
        <time>2022-11-17T10:03:31Z</time>
      </trkpt>
      <trkpt lat="44.72927" lon="5.16662">
        <ele>620</ele>
        <time>2022-11-17T10:03:31Z</time>
      </trkpt>
      <trkpt lat="44.72875" lon="5.1674">
        <ele>623</ele>
        <time>2022-12-03T08:48:58Z</time>
      </trkpt>
      <trkpt lat="44.72822" lon="5.16818">
        <ele>627</ele>
        <time>2022-11-17T10:03:31Z</time>
      </trkpt>
      <trkpt lat="44.72776" lon="5.16874">
        <ele>632</ele>
        <time>2022-12-03T08:48:58Z</time>
      </trkpt>
      <trkpt lat="44.7273" lon="5.16929">
        <ele>637</ele>
        <time>2022-11-17T10:03:31Z</time>
      </trkpt>
      <trkpt lat="44.72692" lon="5.16941">
        <ele>641</ele>
        <time>2022-11-17T10:03:31Z</time>
      </trkpt>
      <trkpt lat="44.72642" lon="5.16929">
        <ele>644</ele>
        <time>2022-11-17T10:03:31Z</time>
      </trkpt>
      <trkpt lat="44.72539" lon="5.16862">
        <ele>644</ele>
        <time>2022-11-17T10:03:31Z</time>
      </trkpt>
      <trkpt lat="44.72501" lon="5.16853">
        <ele>644</ele>
        <time>2022-11-17T10:03:31Z</time>
      </trkpt>
      <trkpt lat="44.72437" lon="5.16809">
        <ele>644</ele>
        <time>2022-11-17T10:03:31Z</time>
      </trkpt>
      <trkpt lat="44.7235" lon="5.1681">
        <ele>647</ele>
        <time>2022-11-17T10:03:31Z</time>
      </trkpt>
      <trkpt lat="44.72311" lon="5.1683">
        <ele>648</ele>
        <time>2022-11-17T10:03:31Z</time>
      </trkpt>
      <trkpt lat="44.72306" lon="5.16843">
        <ele>648</ele>
        <time>2022-11-17T10:03:31Z</time>
      </trkpt>
      <trkpt lat="44.7231" lon="5.16939">
        <ele>649</ele>
        <time>2022-11-17T10:03:31Z</time>
      </trkpt>
      <trkpt lat="44.72308" lon="5.16955">
        <ele>649</ele>
        <time>2022-11-17T10:03:31Z</time>
      </trkpt>
      <trkpt lat="44.72284" lon="5.17023">
        <ele>646</ele>
        <time>2022-11-17T10:03:31Z</time>
      </trkpt>
      <trkpt lat="44.72281" lon="5.17044">
        <ele>643</ele>
        <time>2022-11-17T10:03:31Z</time>
      </trkpt>
      <trkpt lat="44.72272" lon="5.17071">
        <ele>640</ele>
        <time>2022-11-17T10:03:31Z</time>
      </trkpt>
      <trkpt lat="44.72257" lon="5.1714">
        <ele>635</ele>
        <time>2022-11-17T10:03:31Z</time>
      </trkpt>
      <trkpt lat="44.72257" lon="5.17156">
        <ele>631</ele>
        <time>2022-11-17T10:03:31Z</time>
      </trkpt>
      <trkpt lat="44.72249" lon="5.17196">
        <ele>626</ele>
        <time>2022-11-17T10:03:31Z</time>
      </trkpt>
      <trkpt lat="44.72247" lon="5.17237">
        <ele>622</ele>
        <time>2022-11-17T10:03:31Z</time>
      </trkpt>
      <trkpt lat="44.72241" lon="5.17247">
        <ele>619</ele>
        <time>2022-11-17T10:03:31Z</time>
      </trkpt>
      <trkpt lat="44.72233" lon="5.17242">
        <ele>617</ele>
        <time>2022-11-17T10:03:31Z</time>
      </trkpt>
      <trkpt lat="44.72225" lon="5.17241">
        <ele>615</ele>
        <time>2022-11-17T10:03:31Z</time>
      </trkpt>
      <trkpt lat="44.72202" lon="5.17267">
        <ele>614</ele>
        <time>2022-11-17T10:03:31Z</time>
      </trkpt>
      <trkpt lat="44.7219" lon="5.17268">
        <ele>614</ele>
        <time>2022-11-17T10:03:31Z</time>
      </trkpt>
      <trkpt lat="44.72149" lon="5.173">
        <ele>615</ele>
        <time>2022-11-17T10:03:31Z</time>
      </trkpt>
      <trkpt lat="44.72141" lon="5.17311">
        <ele>616</ele>
        <time>2022-11-17T10:03:31Z</time>
      </trkpt>
      <trkpt lat="44.72133" lon="5.17316">
        <ele>617</ele>
        <time>2022-11-17T10:03:31Z</time>
      </trkpt>
      <trkpt lat="44.72067" lon="5.17315">
        <ele>615</ele>
        <time>2022-12-03T08:48:58Z</time>
      </trkpt>
      <trkpt lat="44.72001" lon="5.17314">
        <ele>614</ele>
        <time>2022-11-17T10:03:31Z</time>
      </trkpt>
      <trkpt lat="44.71915" lon="5.17296">
        <ele>617</ele>
        <time>2022-11-17T10:03:31Z</time>
      </trkpt>
      <trkpt lat="44.71831" lon="5.17301">
        <ele>620</ele>
        <time>2022-12-03T08:48:58Z</time>
      </trkpt>
      <trkpt lat="44.71748" lon="5.17306">
        <ele>622</ele>
        <time>2022-12-03T08:48:58Z</time>
      </trkpt>
      <trkpt lat="44.71664" lon="5.17311">
        <ele>625</ele>
        <time>2022-12-03T08:48:58Z</time>
      </trkpt>
      <trkpt lat="44.7158" lon="5.17316">
        <ele>630</ele>
        <time>2022-12-03T08:48:58Z</time>
      </trkpt>
      <trkpt lat="44.71496" lon="5.17321">
        <ele>632</ele>
        <time>2022-12-03T08:48:58Z</time>
      </trkpt>
      <trkpt lat="44.71245" lon="5.17336">
        <ele>634</ele>
        <time>2022-11-17T10:03:31Z</time>
      </trkpt>
      <trkpt lat="44.71181" lon="5.17321">
        <ele>635</ele>
        <time>2022-11-17T10:03:31Z</time>
      </trkpt>
      <trkpt lat="44.71159" lon="5.17306">
        <ele>636</ele>
        <time>2022-11-17T10:03:31Z</time>
      </trkpt>
      <trkpt lat="44.71156" lon="5.17297">
        <ele>636</ele>
        <time>2022-11-17T10:03:31Z</time>
      </trkpt>
      <trkpt lat="44.71152" lon="5.17276">
        <ele>635</ele>
        <time>2022-11-17T10:03:31Z</time>
      </trkpt>
      <trkpt lat="44.71151" lon="5.17245">
        <ele>633</ele>
        <time>2022-11-17T10:03:31Z</time>
      </trkpt>
      <trkpt lat="44.71148" lon="5.17231">
        <ele>631</ele>
        <time>2022-11-17T10:03:31Z</time>
      </trkpt>
      <trkpt lat="44.71127" lon="5.17186">
        <ele>628</ele>
        <time>2022-11-17T10:03:31Z</time>
      </trkpt>
      <trkpt lat="44.71124" lon="5.17149">
        <ele>625</ele>
        <time>2022-11-17T10:03:31Z</time>
      </trkpt>
      <trkpt lat="44.71118" lon="5.17138">
        <ele>622</ele>
        <time>2022-11-17T10:03:31Z</time>
      </trkpt>
      <trkpt lat="44.71109" lon="5.17133">
        <ele>605</ele>
        <time>2022-11-17T10:03:31Z</time>
      </trkpt>
      <trkpt lat="44.71093" lon="5.171">
        <ele>604</ele>
        <time>2022-11-17T10:03:31Z</time>
      </trkpt>
      <trkpt lat="44.71084" lon="5.17091">
        <ele>603</ele>
        <time>2022-11-17T10:03:31Z</time>
      </trkpt>
      <trkpt lat="44.71072" lon="5.17088">
        <ele>601</ele>
        <time>2022-11-17T10:03:31Z</time>
      </trkpt>
      <trkpt lat="44.71064" lon="5.17083">
        <ele>600</ele>
        <time>2022-11-17T10:03:31Z</time>
      </trkpt>
      <trkpt lat="44.71045" lon="5.17067">
        <ele>597</ele>
        <time>2022-11-17T10:03:31Z</time>
      </trkpt>
      <trkpt lat="44.70998" lon="5.17032">
        <ele>595</ele>
        <time>2022-11-17T10:03:31Z</time>
      </trkpt>
      <trkpt lat="44.70992" lon="5.17016">
        <ele>593</ele>
        <time>2022-11-17T10:03:31Z</time>
      </trkpt>
      <trkpt lat="44.70991" lon="5.17001">
        <ele>591</ele>
        <time>2022-11-17T10:03:31Z</time>
      </trkpt>
      <trkpt lat="44.70983" lon="5.16986">
        <ele>590</ele>
        <time>2022-11-17T10:03:31Z</time>
      </trkpt>
      <trkpt lat="44.70938" lon="5.1698">
        <ele>588</ele>
        <time>2022-11-17T10:03:31Z</time>
      </trkpt>
      <trkpt lat="44.7092" lon="5.16904">
        <ele>585</ele>
        <time>2022-12-03T08:48:58Z</time>
      </trkpt>
      <trkpt lat="44.70902" lon="5.16827">
        <ele>587</ele>
        <time>2022-11-17T10:03:31Z</time>
      </trkpt>
      <trkpt lat="44.70874" lon="5.16773">
        <ele>592</ele>
        <time>2022-11-17T10:03:31Z</time>
      </trkpt>
      <trkpt lat="44.70834" lon="5.1667">
        <ele>594</ele>
        <time>2022-12-03T08:48:58Z</time>
      </trkpt>
      <trkpt lat="44.70794" lon="5.16567">
        <ele>591</ele>
        <time>2022-11-17T10:03:31Z</time>
      </trkpt>
      <trkpt lat="44.70752" lon="5.16497">
        <ele>586</ele>
        <time>2022-11-17T10:03:31Z</time>
      </trkpt>
      <trkpt lat="44.7074" lon="5.16398">
        <ele>580</ele>
        <time>2022-11-17T10:03:31Z</time>
      </trkpt>
      <trkpt lat="44.70714" lon="5.16327">
        <ele>574</ele>
        <time>2022-11-17T10:03:31Z</time>
      </trkpt>
      <trkpt lat="44.7072" lon="5.16228">
        <ele>567</ele>
        <time>2022-11-17T10:03:31Z</time>
      </trkpt>
      <trkpt lat="44.70697" lon="5.16143">
        <ele>564</ele>
        <time>2022-12-03T08:48:58Z</time>
      </trkpt>
      <trkpt lat="44.70673" lon="5.16057">
        <ele>559</ele>
        <time>2022-11-17T10:03:31Z</time>
      </trkpt>
      <trkpt lat="44.70676" lon="5.15972">
        <ele>549</ele>
        <time>2022-12-03T08:48:58Z</time>
      </trkpt>
      <trkpt lat="44.70678" lon="5.15887">
        <ele>541</ele>
        <time>2022-11-17T10:03:31Z</time>
      </trkpt>
      <trkpt lat="44.70707" lon="5.15781">
        <ele>536</ele>
        <time>2022-12-03T08:48:58Z</time>
      </trkpt>
      <trkpt lat="44.70736" lon="5.15675">
        <ele>531</ele>
        <time>2022-11-17T10:03:31Z</time>
      </trkpt>
      <trkpt lat="44.70738" lon="5.15613">
        <ele>528</ele>
        <time>2022-12-03T08:48:58Z</time>
      </trkpt>
      <trkpt lat="44.70739" lon="5.15551">
        <ele>525</ele>
        <time>2022-12-03T08:48:58Z</time>
      </trkpt>
      <trkpt lat="44.70742" lon="5.15426">
        <ele>522</ele>
        <time>2022-11-17T10:03:31Z</time>
      </trkpt>
      <trkpt lat="44.70759" lon="5.15338">
        <ele>522</ele>
        <time>2022-11-17T10:03:31Z</time>
      </trkpt>
      <trkpt lat="44.70732" lon="5.15282">
        <ele>522</ele>
        <time>2022-12-03T08:48:58Z</time>
      </trkpt>
      <trkpt lat="44.70704" lon="5.15226">
        <ele>522</ele>
        <time>2022-11-17T10:03:31Z</time>
      </trkpt>
      <trkpt lat="44.70716" lon="5.15133">
        <ele>517</ele>
        <time>2022-12-03T08:48:58Z</time>
      </trkpt>
      <trkpt lat="44.70728" lon="5.15041">
        <ele>510</ele>
        <time>2022-12-03T08:48:58Z</time>
      </trkpt>
      <trkpt lat="44.7074" lon="5.14948">
        <ele>506</ele>
        <time>2022-12-03T08:48:58Z</time>
      </trkpt>
      <trkpt lat="44.70752" lon="5.14855">
        <ele>503</ele>
        <time>2022-11-17T10:03:31Z</time>
      </trkpt>
      <trkpt lat="44.70721" lon="5.14913">
        <ele>502</ele>
        <time>2022-12-03T08:48:58Z</time>
      </trkpt>
      <trkpt lat="44.7069" lon="5.14971">
        <ele>501</ele>
        <time>2022-11-17T10:03:31Z</time>
      </trkpt>
      <trkpt lat="44.70672" lon="5.15056">
        <ele>500</ele>
        <time>2022-12-03T08:48:58Z</time>
      </trkpt>
      <trkpt lat="44.70632" lon="5.15244">
        <ele>503</ele>
        <time>2022-11-17T10:03:31Z</time>
      </trkpt>
      <trkpt lat="44.70631" lon="5.15304">
        <ele>505</ele>
        <time>2022-12-03T08:48:58Z</time>
      </trkpt>
      <trkpt lat="44.70627" lon="5.15482">
        <ele>505</ele>
        <time>2022-11-17T10:03:31Z</time>
      </trkpt>
      <trkpt lat="44.70642" lon="5.15539">
        <ele>504</ele>
        <time>2022-12-03T08:48:58Z</time>
      </trkpt>
      <trkpt lat="44.70656" lon="5.15595">
        <ele>502</ele>
        <time>2022-11-17T10:03:31Z</time>
      </trkpt>
      <trkpt lat="44.70637" lon="5.15663">
        <ele>501</ele>
        <time>2022-12-03T08:48:58Z</time>
      </trkpt>
      <trkpt lat="44.70588" lon="5.15825">
        <ele>500</ele>
        <time>2022-12-03T08:48:58Z</time>
      </trkpt>
      <trkpt lat="44.70559" lon="5.15919">
        <ele>496</ele>
        <time>2022-11-17T10:03:31Z</time>
      </trkpt>
      <trkpt lat="44.70547" lon="5.16005">
        <ele>492</ele>
        <time>2022-11-17T10:03:31Z</time>
      </trkpt>
      <trkpt lat="44.70508" lon="5.16072">
        <ele>484</ele>
        <time>2022-11-17T10:03:31Z</time>
      </trkpt>
      <trkpt lat="44.70522" lon="5.16121">
        <ele>479</ele>
        <time>2022-11-17T10:03:31Z</time>
      </trkpt>
      <trkpt lat="44.70538" lon="5.16186">
        <ele>474</ele>
        <time>2022-12-03T08:48:58Z</time>
      </trkpt>
      <trkpt lat="44.70554" lon="5.1625">
        <ele>472</ele>
        <time>2022-11-17T10:03:31Z</time>
      </trkpt>
      <trkpt lat="44.70545" lon="5.16246">
        <ele>471</ele>
        <time>2022-11-17T10:03:31Z</time>
      </trkpt>
      <trkpt lat="44.70537" lon="5.16234">
        <ele>469</ele>
        <time>2022-11-17T10:03:31Z</time>
      </trkpt>
      <trkpt lat="44.70526" lon="5.16201">
        <ele>466</ele>
        <time>2022-11-17T10:03:31Z</time>
      </trkpt>
      <trkpt lat="44.70501" lon="5.1619">
        <ele>463</ele>
        <time>2022-11-17T10:03:31Z</time>
      </trkpt>
      <trkpt lat="44.70467" lon="5.16158">
        <ele>459</ele>
        <time>2022-11-17T10:03:31Z</time>
      </trkpt>
      <trkpt lat="44.70438" lon="5.16144">
        <ele>455</ele>
        <time>2022-11-17T10:03:31Z</time>
      </trkpt>
      <trkpt lat="44.70404" lon="5.16144">
        <ele>451</ele>
        <time>2022-11-17T10:03:31Z</time>
      </trkpt>
      <trkpt lat="44.70395" lon="5.16142">
        <ele>448</ele>
        <time>2022-11-17T10:03:31Z</time>
      </trkpt>
      <trkpt lat="44.70375" lon="5.16142">
        <ele>445</ele>
        <time>2022-11-17T10:03:31Z</time>
      </trkpt>
      <trkpt lat="44.70353" lon="5.16134">
        <ele>442</ele>
        <time>2022-11-17T10:03:31Z</time>
      </trkpt>
      <trkpt lat="44.70347" lon="5.16129">
        <ele>440</ele>
        <time>2022-11-17T10:03:31Z</time>
      </trkpt>
      <trkpt lat="44.70337" lon="5.16127">
        <ele>438</ele>
        <time>2022-11-17T10:03:31Z</time>
      </trkpt>
      <trkpt lat="44.703" lon="5.16142">
        <ele>435</ele>
        <time>2022-11-17T10:03:31Z</time>
      </trkpt>
      <trkpt lat="44.70292" lon="5.16147">
        <ele>424</ele>
        <time>2022-11-17T10:03:31Z</time>
      </trkpt>
      <trkpt lat="44.70261" lon="5.1622">
        <ele>425</ele>
        <time>2022-11-17T10:03:31Z</time>
      </trkpt>
      <trkpt lat="44.70243" lon="5.16239">
        <ele>425</ele>
        <time>2022-11-17T10:03:31Z</time>
      </trkpt>
      <trkpt lat="44.70219" lon="5.1628">
        <ele>423</ele>
        <time>2022-11-17T10:03:31Z</time>
      </trkpt>
      <trkpt lat="44.70217" lon="5.16298">
        <ele>421</ele>
        <time>2022-11-17T10:03:31Z</time>
      </trkpt>
      <trkpt lat="44.70224" lon="5.16315">
        <ele>420</ele>
        <time>2022-11-17T10:03:31Z</time>
      </trkpt>
      <trkpt lat="44.70224" lon="5.16371">
        <ele>418</ele>
        <time>2022-11-17T10:03:31Z</time>
      </trkpt>
      <trkpt lat="44.70209" lon="5.16442">
        <ele>415</ele>
        <time>2022-11-17T10:03:31Z</time>
      </trkpt>
      <trkpt lat="44.702" lon="5.16459">
        <ele>413</ele>
        <time>2022-11-17T10:03:31Z</time>
      </trkpt>
      <trkpt lat="44.70186" lon="5.16471">
        <ele>410</ele>
        <time>2022-11-17T10:03:31Z</time>
      </trkpt>
      <trkpt lat="44.70168" lon="5.16505">
        <ele>407</ele>
        <time>2022-11-17T10:03:31Z</time>
      </trkpt>
      <trkpt lat="44.70134" lon="5.16545">
        <ele>403</ele>
        <time>2022-11-17T10:03:31Z</time>
      </trkpt>
      <trkpt lat="44.70115" lon="5.16582">
        <ele>399</ele>
        <time>2022-11-17T10:03:31Z</time>
      </trkpt>
      <trkpt lat="44.70112" lon="5.16596">
        <ele>396</ele>
        <time>2022-11-17T10:03:31Z</time>
      </trkpt>
      <trkpt lat="44.70111" lon="5.16611">
        <ele>394</ele>
        <time>2022-11-17T10:03:31Z</time>
      </trkpt>
      <trkpt lat="44.70103" lon="5.16623">
        <ele>392</ele>
        <time>2022-11-17T10:03:31Z</time>
      </trkpt>
      <trkpt lat="44.70044" lon="5.16659">
        <ele>387</ele>
        <time>2022-11-17T10:03:31Z</time>
      </trkpt>
      <trkpt lat="44.70034" lon="5.16662">
        <ele>384</ele>
        <time>2022-11-17T10:03:31Z</time>
      </trkpt>
      <trkpt lat="44.69974" lon="5.16669">
        <ele>378</ele>
        <time>2022-11-17T10:03:31Z</time>
      </trkpt>
      <trkpt lat="44.69939" lon="5.16684">
        <ele>372</ele>
        <time>2022-11-17T10:03:31Z</time>
      </trkpt>
      <trkpt lat="44.69924" lon="5.16699">
        <ele>368</ele>
        <time>2022-11-17T10:03:31Z</time>
      </trkpt>
      <trkpt lat="44.69897" lon="5.16744">
        <ele>363</ele>
        <time>2022-11-17T10:03:31Z</time>
      </trkpt>
      <trkpt lat="44.69894" lon="5.16756">
        <ele>360</ele>
        <time>2022-11-17T10:03:31Z</time>
      </trkpt>
      <trkpt lat="44.69902" lon="5.16767">
        <ele>357</ele>
        <time>2022-11-17T10:03:31Z</time>
      </trkpt>
      <trkpt lat="44.69952" lon="5.16805">
        <ele>353</ele>
        <time>2022-11-17T10:03:31Z</time>
      </trkpt>
      <trkpt lat="44.69969" lon="5.16809">
        <ele>351</ele>
        <time>2022-11-17T10:03:31Z</time>
      </trkpt>
      <trkpt lat="44.69971" lon="5.1682">
        <ele>349</ele>
        <time>2022-11-17T10:03:31Z</time>
      </trkpt>
      <trkpt lat="44.69968" lon="5.16835">
        <ele>347</ele>
        <time>2022-11-17T10:03:31Z</time>
      </trkpt>
      <trkpt lat="44.69969" lon="5.16854">
        <ele>346</ele>
        <time>2022-11-17T10:03:31Z</time>
      </trkpt>
      <trkpt lat="44.69964" lon="5.16863">
        <ele>346</ele>
        <time>2022-11-17T10:03:31Z</time>
      </trkpt>
      <trkpt lat="44.69935" lon="5.16873">
        <ele>345</ele>
        <time>2022-11-17T10:03:31Z</time>
      </trkpt>
      <trkpt lat="44.69913" lon="5.16874">
        <ele>343</ele>
        <time>2022-11-17T10:03:31Z</time>
      </trkpt>
      <trkpt lat="44.69853" lon="5.16932">
        <ele>341</ele>
        <time>2022-11-17T10:03:31Z</time>
      </trkpt>
      <trkpt lat="44.69848" lon="5.16949">
        <ele>340</ele>
        <time>2022-11-17T10:03:31Z</time>
      </trkpt>
      <trkpt lat="44.69849" lon="5.1696">
        <ele>339</ele>
        <time>2022-11-17T10:03:31Z</time>
      </trkpt>
      <trkpt lat="44.69864" lon="5.17002">
        <ele>339</ele>
        <time>2022-11-17T10:03:31Z</time>
      </trkpt>
      <trkpt lat="44.69863" lon="5.17013">
        <ele>339</ele>
        <time>2022-11-17T10:03:31Z</time>
      </trkpt>
      <trkpt lat="44.69846" lon="5.17027">
        <ele>339</ele>
        <time>2022-11-17T10:03:31Z</time>
      </trkpt>
      <trkpt lat="44.69767" lon="5.17047">
        <ele>337</ele>
        <time>2022-11-17T10:03:31Z</time>
      </trkpt>
      <trkpt lat="44.69757" lon="5.17055">
        <ele>336</ele>
        <time>2022-11-17T10:03:31Z</time>
      </trkpt>
      <trkpt lat="44.69752" lon="5.1707">
        <ele>335</ele>
        <time>2022-11-17T10:03:31Z</time>
      </trkpt>
      <trkpt lat="44.69749" lon="5.17133">
        <ele>333</ele>
        <time>2022-11-17T10:03:31Z</time>
      </trkpt>
      <trkpt lat="44.69758" lon="5.17177">
        <ele>333</ele>
        <time>2022-11-17T10:03:31Z</time>
      </trkpt>
      <trkpt lat="44.69755" lon="5.17186">
        <ele>332</ele>
        <time>2022-11-17T10:03:31Z</time>
      </trkpt>
      <trkpt lat="44.69687" lon="5.17243">
        <ele>330</ele>
        <time>2022-11-17T10:03:31Z</time>
      </trkpt>
      <trkpt lat="44.6968" lon="5.17258">
        <ele>329</ele>
        <time>2022-11-17T10:03:31Z</time>
      </trkpt>
      <trkpt lat="44.69675" lon="5.17286">
        <ele>328</ele>
        <time>2022-11-17T10:03:31Z</time>
      </trkpt>
      <trkpt lat="44.69676" lon="5.17321">
        <ele>327</ele>
        <time>2022-11-17T10:03:31Z</time>
      </trkpt>
      <trkpt lat="44.69737" lon="5.17423">
        <ele>329</ele>
        <time>2022-11-17T10:03:31Z</time>
      </trkpt>
      <trkpt lat="44.69781" lon="5.17602">
        <ele>326</ele>
        <time>2022-11-17T10:03:31Z</time>
      </trkpt>
      <trkpt lat="44.6979" lon="5.17616">
        <ele>325</ele>
        <time>2022-11-17T10:03:31Z</time>
      </trkpt>
      <trkpt lat="44.69797" lon="5.17621">
        <ele>324</ele>
        <time>2022-11-17T10:03:31Z</time>
      </trkpt>
      <trkpt lat="44.69798" lon="5.17636">
        <ele>323</ele>
        <time>2022-11-17T10:03:31Z</time>
      </trkpt>
      <trkpt lat="44.69786" lon="5.17669">
        <ele>321</ele>
        <time>2022-11-17T10:03:31Z</time>
      </trkpt>
      <trkpt lat="44.69785" lon="5.17698">
        <ele>318</ele>
        <time>2022-11-17T10:03:31Z</time>
      </trkpt>
      <trkpt lat="44.69786" lon="5.1771">
        <ele>316</ele>
        <time>2022-11-17T10:03:31Z</time>
      </trkpt>
      <trkpt lat="44.69792" lon="5.17728">
        <ele>314</ele>
        <time>2022-11-17T10:03:31Z</time>
      </trkpt>
      <trkpt lat="44.69803" lon="5.17734">
        <ele>312</ele>
        <time>2022-11-17T10:03:31Z</time>
      </trkpt>
      <trkpt lat="44.69836" lon="5.17739">
        <ele>310</ele>
        <time>2022-11-17T10:03:31Z</time>
      </trkpt>
      <trkpt lat="44.69859" lon="5.17752">
        <ele>309</ele>
        <time>2022-11-17T10:03:31Z</time>
      </trkpt>
      <trkpt lat="44.69906" lon="5.17763">
        <ele>308</ele>
        <time>2022-11-17T10:03:31Z</time>
      </trkpt>
      <trkpt lat="44.69912" lon="5.17769">
        <ele>307</ele>
        <time>2022-11-17T10:03:31Z</time>
      </trkpt>
      <trkpt lat="44.69905" lon="5.17781">
        <ele>305</ele>
        <time>2022-11-17T10:03:31Z</time>
      </trkpt>
      <trkpt lat="44.69846" lon="5.17777">
        <ele>303</ele>
        <time>2022-11-17T10:03:31Z</time>
      </trkpt>
      <trkpt lat="44.69781" lon="5.17792">
        <ele>299</ele>
        <time>2022-11-17T10:03:31Z</time>
      </trkpt>
      <trkpt lat="44.69779" lon="5.17803">
        <ele>295</ele>
        <time>2022-11-17T10:03:31Z</time>
      </trkpt>
      <trkpt lat="44.69796" lon="5.17892">
        <ele>290</ele>
        <time>2022-11-17T10:03:31Z</time>
      </trkpt>
      <trkpt lat="44.69794" lon="5.17904">
        <ele>288</ele>
        <time>2022-11-17T10:03:31Z</time>
      </trkpt>
      <trkpt lat="44.69788" lon="5.17921">
        <ele>286</ele>
        <time>2022-11-17T10:03:31Z</time>
      </trkpt>
      <trkpt lat="44.6978" lon="5.17932">
        <ele>284</ele>
        <time>2022-11-17T10:03:31Z</time>
      </trkpt>
      <trkpt lat="44.69759" lon="5.18089">
        <ele>280</ele>
        <time>2022-11-17T10:03:31Z</time>
      </trkpt>
      <trkpt lat="44.69765" lon="5.18138">
        <ele>278</ele>
        <time>2022-11-17T10:03:31Z</time>
      </trkpt>
      <trkpt lat="44.69779" lon="5.18179">
        <ele>276</ele>
        <time>2022-11-17T10:03:31Z</time>
      </trkpt>
      <trkpt lat="44.69794" lon="5.1828">
        <ele>276</ele>
        <time>2022-11-17T10:03:31Z</time>
      </trkpt>
      <trkpt lat="44.69794" lon="5.18327">
        <ele>277</ele>
        <time>2022-11-17T10:03:31Z</time>
      </trkpt>
      <trkpt lat="44.69797" lon="5.18336">
        <ele>278</ele>
        <time>2022-11-17T10:03:31Z</time>
      </trkpt>
      <trkpt lat="44.69787" lon="5.18375">
        <ele>278</ele>
        <time>2022-11-17T10:03:31Z</time>
      </trkpt>
      <trkpt lat="44.69765" lon="5.18598">
        <ele>277</ele>
        <time>2022-11-17T10:03:31Z</time>
      </trkpt>
      <trkpt lat="44.69759" lon="5.18615">
        <ele>277</ele>
        <time>2022-11-17T10:03:31Z</time>
      </trkpt>
      <trkpt lat="44.69734" lon="5.18649">
        <ele>277</ele>
        <time>2022-11-17T10:03:31Z</time>
      </trkpt>
      <trkpt lat="44.69693" lon="5.18767">
        <ele>276</ele>
        <time>2022-11-17T10:03:31Z</time>
      </trkpt>
      <trkpt lat="44.69675" lon="5.18916">
        <ele>275</ele>
        <time>2022-11-17T10:03:31Z</time>
      </trkpt>
      <trkpt lat="44.69706" lon="5.192">
        <ele>270</ele>
        <time>2022-11-17T10:03:31Z</time>
      </trkpt>
      <trkpt lat="44.69685" lon="5.19392">
        <ele>267</ele>
        <time>2022-11-17T10:03:31Z</time>
      </trkpt>
      <trkpt lat="44.6968" lon="5.19402">
        <ele>266</ele>
        <time>2022-11-17T10:03:31Z</time>
      </trkpt>
      <trkpt lat="44.69674" lon="5.19488">
        <ele>265</ele>
        <time>2022-11-17T10:03:31Z</time>
      </trkpt>
      <trkpt lat="44.69646" lon="5.19614">
        <ele>264</ele>
        <time>2022-11-17T10:03:31Z</time>
      </trkpt>
      <trkpt lat="44.69647" lon="5.19648">
        <ele>264</ele>
        <time>2022-11-17T10:03:31Z</time>
      </trkpt>
      <trkpt lat="44.69657" lon="5.19689">
        <ele>264</ele>
        <time>2022-11-17T10:03:31Z</time>
      </trkpt>
      <trkpt lat="44.69649" lon="5.19699">
        <ele>264</ele>
        <time>2022-11-17T10:03:31Z</time>
      </trkpt>
      <trkpt lat="44.69649" lon="5.1971">
        <ele>264</ele>
        <time>2022-11-17T10:03:31Z</time>
      </trkpt>
      <trkpt lat="44.69654" lon="5.19726">
        <ele>264</ele>
        <time>2022-11-17T10:03:31Z</time>
      </trkpt>
      <trkpt lat="44.69663" lon="5.19726">
        <ele>264</ele>
        <time>2022-11-17T10:03:31Z</time>
      </trkpt>
      <trkpt lat="44.69676" lon="5.19864">
        <ele>265</ele>
        <time>2022-11-17T10:03:31Z</time>
      </trkpt>
      <trkpt lat="44.69675" lon="5.19878">
        <ele>266</ele>
        <time>2022-11-17T10:03:31Z</time>
      </trkpt>
      <trkpt lat="44.69684" lon="5.19882">
        <ele>267</ele>
        <time>2022-11-17T10:03:31Z</time>
      </trkpt>
      <trkpt lat="44.69692" lon="5.19891">
        <ele>267</ele>
        <time>2022-11-17T10:03:31Z</time>
      </trkpt>
      <trkpt lat="44.69688" lon="5.19968">
        <ele>268</ele>
        <time>2022-11-17T10:03:31Z</time>
      </trkpt>
      <trkpt lat="44.69708" lon="5.19981">
        <ele>268</ele>
        <time>2022-11-17T10:03:31Z</time>
        <extensions>
          <visugpx:TrkExtension xmlns:visugpx="https://www.visugpx.com/editgpx/">
            <visugpx:node>1</visugpx:node>
            </visugpx:TrkExtension>
        </extensions>
      </trkpt>
    </trkseg>
  </trk>
</gpx>